RH
87 78 74 68 64 61 58 51 46 64 88 97 101 97 85 74 68 78 84 69 65 77 79 79 78 76 78 77 78 84 87 87 80 74 78 91 99 99 97 91 82 83
88 81 76 70 66 64 59 50 55 79 95 98 99 86 73 74 73 79 84 72 69 78 82 84 84 82 88 93 91 89 87 86 81 73 77 89 98 99 99 98 90 84
83 80 75 70 68 66 58 56 70 87 93 95 89 70 71 91 94 93 96 89 81 76 76 83 89 90 94 95 92 89 84 81 79 76 77 81 89 98 99 98 97 92
78 76 71 68 68 64 60 64 78 87 89 87 71 61 80 100 101 99 101 99 91 77 68 76 90 96 97 96 96 95 88 81 77 77 81 82 86 97 101 100 100 98
75 72 70 69 68 65 63 72 86 91 86 76 64 73 96 101 99 100 100 100 94 79 67 69 80 89 93 96 99 96 89 82 74 70 76 85 90 93 96 98 97 95
75 76 76 73 70 74 80 88 94 87 79 79 84 94 102 99 99 100 99 101 96 84 77 77 78 79 83 91 98 98 93 86 79 71 69 77 85 88 91 94 92 87
84 79 71 65 67 77 85 86 83 79 84 95 101 101 98 95 98 99 99 101 98 91 88 91 94 90 85 89 94 97 94 90 85 80 72 69 76 86 93 97 93 85
74 68 66 72 77 78 80 81 81 85 91 94 96 97 92 89 94 100 100 100 100 98 96 97 100 100 96 95 94 92 90 88 86 82 76 70 69 74 85 95 99 94
69 72 79 86 86 84 85 86 85 84 82 82 87 89 81 82 95 101 100 100 100 100 98 97 98 100 100 99 97 92 88 86 84 81 78 76 72 69 74 87 99 100
83 83 81 77 71 71 74 74 76 78 76 73 76 79 77 84 97 100 100 101 101 100 99 96 96 97 100 101 99 95 92 91 89 87 86 84 81 74 71 80 93 97
81 79 74 69 64 63 65 71 81 88 85 73 69 78 89 95 99 99 100 100 99 100 100 96 92 92 93 95 95 93 92 90 87 85 85 85 85 79 72 78 90 94
74 74 72 71 72 74 78 86 95 100 98 90 86 92 99 101 100 99 100 101 98 99 100 97 92 89 86 85 84 82 82 80 76 72 69 74 84 84 76 77 88 96
74 74 74 75 77 82 87 93 96 97 97 95 94 96 97 97 95 93 94 95 93 93 96 97 93 88 83 81 79 77 75 73 72 66 59 66 83 88 80 76 81 89
75 75 76 77 80 86 91 91 88 84 82 79 79 81 83 83 81 79 78 79 82 84 86 87 86 83 80 77 75 74 72 69 66 60 55 64 83 92 88 83 79 79
78 79 80 83 88 94 97 95 92 88 82 76 74 74 75 77 77 76 71 66 67 72 75 77 77 75 73 72 69 67 64 61 59 54 54 65 82 93 91 86 80 74
84 87 90 93 96 99 100 100 99 96 91 85 82 83 85 89 91 90 83 73 65 63 65 69 71 70 69 66 65 65 62 60 55 51 55 69 82 89 88 85 84 79
93 95 97 98 99 100 100 101 101 98 96 95 94 94 96 99 100 99 97 92 85 75 65 62 66 68 64 61 64 67 65 61 56 52 60 74 82 89 91 88 89 90
98 99 100 100 100 100 100 101 102 101 100 100 99 99 100 100 100 100 100 100 99 96 83 68 60 58 59 65 72 73 69 67 65 63 69 78 82 88 97 96 94 96
100 99 100 100 100 101 101 100 101 101 100 100 100 100 100 100 100 100 100 100 100 101 97 86 75 70 74 82 87 87 86 87 86 83 81 84 85 89 97 100 98 98
100 99 100 100 100 100 101 101 101 100 100 100 100 100 100 100 100 100 100 101 100 100 100 98 93 87 84 85 88 89 91 95 98 95 90 88 89 92 97 100 100 100
100 100 100 100 101 101 100 101 101 100 100 100 100 100 100 100 100 100 100 100 100 100 100 99 99 96 93 93 95 94 93 95 99 99 96 93 92 94 98 100 100 99
100 101 100 100 101 101 100 100 100 100 100 100 100 100 100 100 100 100 100 100 100 100 100 97 95 98 100 99 96 94 95 98 99 98 99 99 98 98 100 101 101 101
100 100 100 101 101 100 100 100 100 100 100 100 100 100 100 100 100 100 100 100 100 100 100 96 92 93 97 97 93 91 93 95 94 92 92 93 92 93 94 92 92 94
101 101 101 101 101 100 100 100 100 100 100 100 100 100 100 100 100 100 100 99 100 100 100 99 96 95 98 100 97 94 93 93 93 90 87 85 83 83 84 83 83 83
101 102 101 100 101 100 100 101 100 100 100 100 100 100 100 100 100 99 98 98 99 99 100 100 99 98 99 98 96 95 96 98 99 97 94 92 90 90 90 90 90 90
102 102 101 100 101 100 100 101 100 100 100 100 100 101 100 100 101 100 100 101 99 96 97 100 100 99 96 93 92 95 97 98 99 99 98 99 99 98 98 97 98 97
Wind_Speed
23 27 29 33 36 38 41 44 43 35 29 27 29 33 35 36 33 30 30 32 32 32 31 31 31 31 32 31 31 31 30 29 29 30 31 32 34 34 33 33 34 32
29 31 34 37 39 40 43 43 38 31 29 30 33 36 37 34 31 29 29 29 29 30 30 30 30 29 27 26 26 27 28 29 30 30 30 31 32 34 34 32 33 33
35 35 38 39 40 41 43 40 34 31 33 36 38 39 36 30 27 27 27 26 27 28 29 29 28 27 25 24 23 25 27 28 29 28 28 30 31 32 32 30 31 32
38 39 41 41 41 43 42 37 34 34 36 40 41 36 30 25 25 26 26 25 25 27 28 29 27 25 24 24 23 25 26 27 28 27 26 26 28 30 28 26 27 30
43 44 43 42 42 42 39 34 33 35 38 41 36 28 25 26 26 24 25 25 24 25 27 28 27 26 25 25 25 26 26 27 28 27 26 25 24 27 26 24 25 28
44 40 38 39 38 35 32 30 32 36 37 33 26 23 26 27 24 21 21 23 23 22 24 26 26 27 27 26 25 25 26 26 26 26 27 26 24 24 25 24 25 27
35 35 37 38 35 32 32 33 34 34 29 24 22 23 26 25 22 20 19 19 20 21 22 24 25 26 27 26 26 26 25 24 23 23 25 27 26 24 24 25 25 25
37 38 37 34 30 29 30 30 29 28 25 25 24 23 24 23 20 21 20 17 17 19 20 20 22 23 23 25 26 27 25 24 22 22 23 26 27 26 25 25 25 25
35 32 27 26 26 26 26 26 28 30 31 29 25 23 24 22 20 21 21 17 15 17 17 17 18 19 20 21 24 24 23 23 21 20 21 22 25 27 26 24 25 26
27 26 26 27 30 31 31 31 31 32 31 29 26 24 23 21 21 21 20 17 16 15 16 15 15 15 16 18 20 21 21 21 20 20 21 21 22 25 26 25 25 27
28 30 30 31 33 33 31 27 25 25 24 25 24 22 20 20 22 20 19 19 19 16 16 16 16 15 15 16 17 19 20 20 20 20 20 21 22 22 24 25 25 27
29 31 30 30 32 30 26 23 23 23 20 18 19 20 20 21 22 21 21 22 21 19 18 19 19 19 18 19 19 20 21 21 21 21 21 22 22 22 23 25 25 27
29 30 30 30 29 28 26 24 24 25 24 21 20 22 23 23 24 25 26 25 23 22 22 21 22 22 22 23 23 24 24 24 24 24 24 23 23 23 23 25 26 26
28 28 28 28 28 26 26 25 25 26 26 24 23 24 25 26 27 29 29 27 26 26 25 25 25 26 25 26 27 27 28 28 27 27 26 25 24 23 23 25 27 27
27 27 27 27 27 26 26 27 26 26 24 23 23 24 26 26 26 27 29 30 29 29 28 28 29 30 30 29 30 31 32 32 30 29 28 26 24 24 24 25 27 28
25 25 25 25 26 27 27 27 27 25 22 21 21 21 21 21 20 21 23 26 29 30 30 30 30 31 31 31 31 31 31 32 31 30 29 27 25 25 25 25 25 27
24 24 24 24 26 26 26 27 28 26 23 21 20 18 17 17 16 16 17 19 23 26 28 30 30 30 29 28 28 27 28 30 30 29 29 28 27 27 27 25 24 25
25 25 25 27 27 27 27 29 29 27 24 22 20 18 17 15 13 12 12 12 15 19 23 26 28 27 26 25 25 24 25 26 28 28 29 29 29 29 29 28 26 25
27 28 29 29 29 28 29 30 29 25 23 21 20 18 16 15 12 10 8 8 10 13 16 19 21 21 21 21 22 21 21 22 24 27 29 30 29 29 29 29 27 26
30 31 32 32 32 31 30 29 27 24 21 20 19 18 16 15 13 11 9 8 7 8 10 12 14 16 18 19 20 19 19 20 22 24 26 27 28 28 28 28 27 26
33 34 34 34 33 32 29 27 25 23 22 20 19 18 17 16 15 13 12 11 9 6 6 7 7 9 11 13 15 15 16 18 20 22 24 26 26 27 27 26 25 25
35 36 35 34 32 31 28 27 25 23 22 21 19 17 17 17 17 16 15 14 11 9 7 6 5 5 6 8 10 11 12 14 16 18 21 23 24 25 25 25 25 25
36 35 35 33 31 30 28 26 25 23 22 21 20 18 18 18 18 17 16 15 13 10 9 9 7 5 6 9 10 11 12 13 14 16 18 20 21 22 23 24 25 26
36 35 34 32 30 29 27 26 25 23 22 20 19 18 18 18 17 16 16 16 15 11 9 9 8 7 7 9 10 12 12 14 15 17 19 21 22 22 23 23 24 25
35 34 32 31 29 28 26 25 24 22 20 19 18 18 17 16 16 16 16 17 17 13 9 7 7 6 6 7 9 10 12 13 15 16 19 21 22 23 24 25 26 26
34 32 31 29 28 27 26 24 23 22 20 19 18 16 15 15 15 15 16 17 18 15 10 8 7 7 8 8 10 11 13 15 16 17 19 21 22 23 23 24 25 26
Wind_Direction
303 310 311 312 313 312 313 315 315 310 301 298 295 296 299 296 288 280 275 274 276 278 277 276 274 273 270 267 267 269 270 271 271 272 272 269 268 269 270 269 264 262
307 309 310 311 311 311 311 314 312 303 295 293 293 298 301 297 288 280 276 276 278 278 279 279 276 270 266 263 264 268 270 272 271 271 271 269 265 266 268 268 264 260
308 308 309 309 309 309 310 311 306 294 291 292 294 298 299 296 291 282 277 277 280 279 280 281 275 265 258 258 264 270 272 273 272 270 272 269 263 262 265 265 262 259
307 306 307 306 305 305 306 306 298 290 290 293 294 295 295 299 298 289 280 277 280 280 278 278 274 263 257 258 263 268 269 270 270 270 273 272 261 254 258 261 259 258
304 304 305 304 303 304 304 299 290 288 291 294 295 294 298 302 300 292 283 277 278 279 277 276 272 265 260 261 263 265 266 268 269 270 270 271 261 251 255 260 260 259
303 305 305 305 305 305 300 291 288 290 293 297 299 299 299 297 295 295 285 275 273 275 276 275 270 266 263 261 260 262 265 267 269 268 266 265 263 258 258 262 263 262
305 306 306 305 304 298 292 290 291 291 296 305 301 293 292 290 294 303 296 280 273 272 275 274 269 266 262 256 255 260 264 265 266 266 264 261 261 260 258 262 266 264
306 307 310 310 305 297 295 295 293 288 293 301 294 288 290 289 294 304 301 289 280 273 273 273 269 265 261 254 253 258 261 262 263 264 264 263 261 259 257 259 263 264
310 310 315 317 313 306 302 299 296 292 291 294 293 292 291 289 294 302 298 289 283 276 271 270 268 266 262 255 251 254 257 259 262 263 264 266 265 261 258 257 258 261
315 312 308 307 308 306 300 296 297 298 294 290 289 292 292 291 293 296 294 288 281 274 267 264 264 267 267 260 252 250 252 256 260 264 267 270 270 265 260 258 257 257
313 310 305 303 306 306 302 300 303 308 302 289 285 290 294 292 290 291 291 284 273 267 262 256 254 257 259 258 254 250 250 253 257 262 268 271 274 272 262 258 259 256
312 312 310 309 311 314 316 318 320 323 318 303 293 293 292 286 282 283 282 274 266 264 262 255 251 251 251 251 252 251 252 255 259 264 269 270 272 273 265 259 261 258
313 312 313 313 314 317 319 318 315 315 314 310 304 298 292 286 280 278 276 271 266 264 261 258 256 254 253 253 254 256 258 260 263 267 270 268 267 270 269 263 261 260
314 314 314 314 313 314 314 312 310 308 307 305 302 295 289 286 283 280 276 271 267 264 261 260 260 258 256 257 258 260 262 264 265 269 269 264 261 265 268 265 261 260
315 314 314 314 314 313 313 314 314 312 307 301 295 290 287 285 283 280 275 269 265 263 261 260 261 261 259 260 262 263 265 265 265 267 265 258 257 260 262 264 261 255
316 315 314 314 314 314 313 317 320 320 315 307 299 295 293 291 286 279 272 267 264 261 259 256 256 258 259 261 263 264 266 265 263 262 258 252 253 255 256 261 261 255
318 317 316 315 315 314 314 320 326 327 324 319 314 311 309 304 297 288 277 269 264 261 258 256 253 254 256 258 259 261 263 262 260 256 250 247 249 251 252 257 260 258
321 320 319 318 317 316 318 325 329 330 328 327 325 324 322 316 310 302 289 277 271 264 260 258 255 253 254 253 254 255 253 253 252 249 244 244 247 249 251 254 257 259
323 322 322 322 321 320 323 329 332 332 333 333 332 332 330 327 327 325 317 303 287 270 261 259 257 254 252 250 250 249 243 242 245 246 245 246 248 250 252 253 255 256
326 326 326 327 329 330 331 334 336 337 340 341 339 339 339 340 346 349 346 340 314 278 259 255 254 253 252 251 253 251 244 240 242 245 248 248 249 251 253 253 253 254
331 332 332 332 335 337 337 340 342 344 347 347 345 346 347 352 358 360 358 356 348 323 281 257 257 267 266 258 253 250 245 241 243 246 249 251 252 252 251 251 253 254
337 336 336 338 340 341 342 345 348 350 353 352 351 354 358 2 5 7 6 2 355 343 317 288 284 305 295 264 245 243 246 246 245 245 247 250 252 251 248 248 251 253
340 339 340 342 345 345 346 349 352 355 359 358 357 1 8 11 14 17 17 9 357 344 324 303 290 279 266 255 248 248 251 250 245 244 245 246 248 249 249 251 252 252
343 343 344 346 347 348 350 354 358 1 3 3 3 8 15 19 21 23 23 15 5 354 335 313 297 281 268 264 258 251 250 252 251 249 249 249 249 249 249 250 252 253
346 346 348 349 350 353 357 1 4 5 8 11 13 15 20 23 21 19 18 11 2 354 343 327 309 300 295 282 265 254 252 255 256 255 254 255 256 255 254 253 252 251
349 349 351 353 355 359 5 7 7 9 14 18 21 20 18 18 15 12 9 1 352 347 345 335 318 307 302 291 276 267 264 262 260 257 256 256 256 257 257 256 255 253